Weather Roundup
Issued by NWS Chicago, IL

Home | Current Version | Previous Version | Text Only | Print | Product List | Glossary Off
Versions: 1 2 3 4 5 6 7 8 9 10 11 12 13 14 15 16 17 18 19 20 21 22 23 24 25 26 27 28 29 30 31 32 33 34 35 36 37 38 39 40 41 42 43 44 45 46 47 48 49 50

000
NZUS59 KLOT 311600
HRRLOT

CHICAGO AREA WEATHER ROUNDUP
NATIONAL WEATHER SERVICE CHICAGO/ROMEOVILLE IL
1100 AM CDT THU JUL 31 2014

NOTE: "FAIR" INDICATES FEW OR NO CLOUDS BELOW 12,000 FEET WITH NO
SIGNIFICANT WEATHER AND/OR OBSTRUCTIONS TO VISIBILITY.

* THESE STATIONS ARE NOT UNDER NWS QUALITY CONTROL. THEY ALSO MAY NOT
  REPORT WEATHER SUCH AS PRECIPITATION OR FOG.

ILZ005-006-012>014-019>023-311700-
NORTHEAST ILLINOIS

CITY           SKY/WX    TMP DP  RH WIND       PRES   REMARKS
OHARE          SUNNY     77  57  50 W9        30.04S
MIDWAY         SUNNY     79  60  52 SW12      30.05R HX  80
AURORA         SUNNY     77  63  61 SW8       30.07R
WAUKEGAN       SUNNY     76  60  57 W5        30.02S
DUPAGE AIRPORT SUNNY     78  62  57 SW7       30.05S HX  80
WHEELING       SUNNY     78  58  49 W12       30.05S
NORTHERLY IS     N/A     76  56  49 W10         N/A
$$

WIZ051-052-058>065-066-070>072-311700-
SOUTHEAST WISCONSIN

CITY           SKY/WX    TMP DP  RH WIND       PRES   REMARKS
MILWAUKEE      SUNNY     75  59  57 W10       30.01S
KENOSHA*       SUNNY     76  63  64 W7        30.03S
RACINE*        SUNNY     75  62  64 W7        30.03S
$$

INZ001>003-010>013-019-020-311700-
NORTHWEST INDIANA

CITY           SKY/WX    TMP DP  RH WIND       PRES   REMARKS
GARY*          SUNNY     79  57  47 SW10      30.06S HX  80
MICHIGAN CITY* NOT AVBL
RENSSELAER*    NOT AVBL
VALPARAISO     MOSUNNY   77  58  51 W12       30.07S
$$

LMZ740>746-311700-
SOUTHERN LAKE MICHIGAN

STATION/POSITION TIME  SKY/WX   TEMP WIND        PRES    VSBY
                                AIR  DIR/SP/G
                 (UTC)          (F)  (DEG/KT/KT) (MB)    (MI)
HARRISON CRIB    1500            72  250/ 12/ 15   N/A
BURNHAM HARBOR   1600            76  270/ 12       N/A
CALUMET HARBOR   1500            76  230/  5/ 11 1016.2R
BURNS HARBOR     NOT AVBL
MICHIGAN CITY    1500            71  200/  8/  9   N/A
$$

ABBREVIATIONS USED IN REMARKS
   TC - TEMPERATURE IN CELSIUS
  WCI - WIND CHILL INDEX
   HX - HEAT INDEX
  VSB - VISIBILITY
$$



USA.gov is the U.S. government's official web portal to all federal, state and local government web resources and services.